User: anonymous   Login
Location: Beaurecueil
(43.5122°N, 5.5450°E)
Time: 13:18:11
(UTC+00:00)
Language:

CZ-2C R/B - Orbit

View from above orbital plane
View from above orbital plane
View from above satellite
View from above satellite

Ground track
Ground track

The orbit data is extracted from the following two-line orbital elements,

1 37766U 11039B   20331.11058486  .00000116  00000-0  30144-4 0  9999
2 37766  98.3576 187.5229 0044570 234.3337 125.3713 14.66510973499149
Epoch (UTC): 26 November 2020 02:39:14
Eccentricity: 0.0044570
inclination: 98.3576°
perigee height: 641 km
apogee height: 703 km
right ascension of ascending node: 187.5229°
argument of perigee: 234.3337°
revolutions per day: 14.66510973
mean anomaly at epoch: 125.3713°
orbit number at epoch: 49914

The dashed part of the orbit path shows where the satellite is in the earth's shadow,  

DLR